Finest — WCW8374 — position and weather

sailwx.info

Track history (hours):
 
Tides and Currents Weather Stations Pressure Air Temp Water Temp Dewpoint Dewpoint Depression Visibility Wind Speed Wind Dir Waves Ship Positions

Finest

Owner: NEW YORK FAST FERRY SERVICES INC, MAMARONECK, NY. More information available from US FCC via Universal Licensing System and Coast Guard Vessel Documentation Center.

Last reported at 2015-Sep-10 21:04 UTC. Time now 2016-Feb-11 21:06 UTC.
Position N 39°30' W 074°13'.
Warning: this ship's position is months out of date.

Length 38 m.

Type: High speed craft. MMSI: 366990590.

Date/timePositionNaut miles runAvg speedWind from/ knotsBaromVisibWave heightAir tempDewpointWater temp
2015-Sep-10 21:04N 39°30' W 074°13'714.0
2015-Sep-10 20:33N 39°36' W 074°09'1413.7
2015-Sep-10 19:33N 39°49' W 074°02'4213.3
2015-Sep-10 16:25N 40°31' W 074°02'1315.2
2015-Sep-10 15:33N 40°44' W 074°01'2 0.0
2015-Sep-08 17:06N 40°46' W 074°01'0 0.0
2015-Sep-08 16:34N 40°46' W 074°01'0 0.0
2015-Sep-08 15:34N 40°46' W 074°01'3 3.4
2015-Sep-08 14:34N 40°43' W 074°02'1717.0
2015-Sep-08 13:33N 40°26' W 074°05'1313.0
2015-Sep-08 12:34N 40°39' W 074°02'2 2.1
2015-Sep-08 11:34N 40°37' W 074°03'1110.6
2015-Sep-08 10:33N 40°26' W 074°05'  
2015-Sep-04 22:33N 40°34' W 074°03'3 2.9
2015-Sep-04 21:31N 40°32' W 074°04'1111.3
2015-Sep-04 20:33N 40°42' W 074°00'2 2.1
2015-Sep-04 19:34N 40°40' W 074°02'2 1.0
2015-Sep-04 17:32N 40°39' W 074°03'8 8.0
2015-Sep-04 16:33N 40°46' W 074°01'0 0.0
2015-Sep-04 15:33N 40°46' W 074°01'0 0.0
2015-Sep-04 14:33N 40°46' W 074°01'0 0.0
2015-Sep-04 13:33N 40°46' W 074°01'6 6.1
2015-Sep-04 12:34N 40°40' W 074°02'4 3.6
2015-Sep-04 11:33N 40°37' W 074°03'11 7.7
2015-Sep-04 10:09N 40°26' W 074°05'0 0.0
2015-Sep-04 09:33N 40°26' W 074°05'9 0.8
2015-Sep-03 22:33N 40°35' W 074°02'4 3.5
2015-Sep-03 21:33N 40°32' W 074°04'1010.5
2015-Sep-03 20:33N 40°42' W 074°00'5 4.5
2015-Sep-03 19:33N 40°46' W 074°01'0 0.0
2015-Sep-03 18:33N 40°46' W 074°01'0 0.0
2015-Sep-03 17:33N 40°46' W 074°01'0 0.0
2015-Sep-03 16:33N 40°46' W 074°01'0 0.0
2015-Sep-03 15:33N 40°46' W 074°01'0 0.3
2015-Sep-03 14:34N 40°46' W 074°01'2020.2
2015-Sep-03 13:33N 40°26' W 074°05'1313.5
2015-Sep-03 12:33N 40°39' W 074°02'3 3.2
2015-Sep-03 11:34N 40°36' W 074°03'1010.1
2015-Sep-03 10:32N 40°26' W 074°05'0 0.0
2015-Sep-03 09:33N 40°26' W 074°05'0 0.0
2015-Sep-02 23:03N 40°26' W 074°05'1020.9
2015-Sep-02 22:34N 40°36' W 074°03'5 5.1
2015-Sep-02 21:30N 40°31' W 074°04'1111.4
2015-Sep-02 20:34N 40°41' W 074°01'5 4.8
2015-Sep-02 19:34N 40°46' W 074°01'0 0.0
2015-Sep-02 18:33N 40°46' W 074°01'0 0.0
2015-Sep-02 17:34N 40°46' W 074°01'0 0.0
2015-Sep-02 16:33N 40°46' W 074°01'0 0.0
2015-Sep-02 15:34N 40°46' W 074°01'0 0.0
2015-Sep-02 14:34N 40°46' W 074°01'0 0.0
2015-Sep-02 13:34N 40°46' W 074°01'7 6.6
2015-Sep-02 12:34N 40°40' W 074°03'4 3.7
2015-Sep-02 11:33N 40°36' W 074°03'1010.3
2015-Sep-02 10:33N 40°26' W 074°05'0 0.0
2015-Sep-01 23:19N 40°26' W 074°05'1114.0
2015-Sep-01 22:34N 40°36' W 074°03'5 4.9
2015-Sep-01 21:33N 40°32' W 074°04'1010.2
2015-Sep-01 20:34N 40°41' W 074°01'5 4.8
2015-Sep-01 19:33N 40°46' W 074°01'0 0.0
2015-Sep-01 18:33N 40°46' W 074°01'0 0.0
2015-Sep-01 17:34N 40°46' W 074°01'0 0.0
2015-Sep-01 16:33N 40°46' W 074°01'0 0.0
2015-Sep-01 15:34N 40°46' W 074°01'0 0.0
2015-Sep-01 14:34N 40°46' W 074°01'0 0.0
2015-Sep-01 13:34N 40°46' W 074°01'8 8.4
2015-Sep-01 12:34N 40°38' W 074°03'0 0.4
2015-Sep-01 11:34N 40°38' W 074°03'1 0.1
2015-Aug-31 22:33N 40°37' W 074°03'5 4.7
2015-Aug-31 21:32N 40°32' W 074°04'  
Track history (hours):
 
Tides and Currents Weather Stations Pressure Air Temp Water Temp Dewpoint Dewpoint Depression Visibility Wind Speed Wind Dir Waves Ship Positions

Finest

Owner: NEW YORK FAST FERRY SERVICES INC, MAMARONECK, NY. More information available from US FCC via Universal Licensing System and Coast Guard Vessel Documentation Center.

Last reported at 2015-Sep-10 21:04 UTC. Time now 2016-Feb-11 21:06 UTC.
Position N 39°30' W 074°13'.
Warning: this ship's position is months out of date.

Length 38 m.

Type: High speed craft. MMSI: 366990590.

Date/timePositionNaut miles runAvg speedWind from/ knotsBaromVisibWave heightAir tempDewpointWater temp
2015-Sep-10 21:04N 39°30' W 074°13'714.0
2015-Sep-10 20:33N 39°36' W 074°09'1413.7
2015-Sep-10 19:33N 39°49' W 074°02'4213.3
2015-Sep-10 16:25N 40°31' W 074°02'1315.2
2015-Sep-10 15:33N 40°44' W 074°01'2 0.0
2015-Sep-08 17:06N 40°46' W 074°01'0 0.0
2015-Sep-08 16:34N 40°46' W 074°01'0 0.0
2015-Sep-08 15:34N 40°46' W 074°01'3 3.4
2015-Sep-08 14:34N 40°43' W 074°02'1717.0
2015-Sep-08 13:33N 40°26' W 074°05'1313.0
2015-Sep-08 12:34N 40°39' W 074°02'2 2.1
2015-Sep-08 11:34N 40°37' W 074°03'1110.6
2015-Sep-08 10:33N 40°26' W 074°05'  
2015-Sep-04 22:33N 40°34' W 074°03'3 2.9
2015-Sep-04 21:31N 40°32' W 074°04'1111.3
2015-Sep-04 20:33N 40°42' W 074°00'2 2.1
2015-Sep-04 19:34N 40°40' W 074°02'2 1.0
2015-Sep-04 17:32N 40°39' W 074°03'8 8.0
2015-Sep-04 16:33N 40°46' W 074°01'0 0.0
2015-Sep-04 15:33N 40°46' W 074°01'0 0.0
2015-Sep-04 14:33N 40°46' W 074°01'0 0.0
2015-Sep-04 13:33N 40°46' W 074°01'6 6.1
2015-Sep-04 12:34N 40°40' W 074°02'4 3.6
2015-Sep-04 11:33N 40°37' W 074°03'11 7.7
2015-Sep-04 10:09N 40°26' W 074°05'0 0.0
2015-Sep-04 09:33N 40°26' W 074°05'9 0.8
2015-Sep-03 22:33N 40°35' W 074°02'4 3.5
2015-Sep-03 21:33N 40°32' W 074°04'1010.5
2015-Sep-03 20:33N 40°42' W 074°00'5 4.5
2015-Sep-03 19:33N 40°46' W 074°01'0 0.0
2015-Sep-03 18:33N 40°46' W 074°01'0 0.0
2015-Sep-03 17:33N 40°46' W 074°01'0 0.0
2015-Sep-03 16:33N 40°46' W 074°01'0 0.0
2015-Sep-03 15:33N 40°46' W 074°01'0 0.3
2015-Sep-03 14:34N 40°46' W 074°01'2020.2
2015-Sep-03 13:33N 40°26' W 074°05'1313.5
2015-Sep-03 12:33N 40°39' W 074°02'3 3.2
2015-Sep-03 11:34N 40°36' W 074°03'1010.1
2015-Sep-03 10:32N 40°26' W 074°05'0 0.0
2015-Sep-03 09:33N 40°26' W 074°05'0 0.0
2015-Sep-02 23:03N 40°26' W 074°05'1020.9
2015-Sep-02 22:34N 40°36' W 074°03'5 5.1
2015-Sep-02 21:30N 40°31' W 074°04'1111.4
2015-Sep-02 20:34N 40°41' W 074°01'5 4.8
2015-Sep-02 19:34N 40°46' W 074°01'0 0.0
2015-Sep-02 18:33N 40°46' W 074°01'0 0.0
2015-Sep-02 17:34N 40°46' W 074°01'0 0.0
2015-Sep-02 16:33N 40°46' W 074°01'0 0.0
2015-Sep-02 15:34N 40°46' W 074°01'0 0.0
2015-Sep-02 14:34N 40°46' W 074°01'0 0.0
2015-Sep-02 13:34N 40°46' W 074°01'7 6.6
2015-Sep-02 12:34N 40°40' W 074°03'4 3.7
2015-Sep-02 11:33N 40°36' W 074°03'1010.3
2015-Sep-02 10:33N 40°26' W 074°05'0 0.0
2015-Sep-01 23:19N 40°26' W 074°05'1114.0
2015-Sep-01 22:34N 40°36' W 074°03'5 4.9
2015-Sep-01 21:33N 40°32' W 074°04'1010.2
2015-Sep-01 20:34N 40°41' W 074°01'5 4.8
2015-Sep-01 19:33N 40°46' W 074°01'0 0.0
2015-Sep-01 18:33N 40°46' W 074°01'0 0.0
2015-Sep-01 17:34N 40°46' W 074°01'0 0.0
2015-Sep-01 16:33N 40°46' W 074°01'0 0.0
2015-Sep-01 15:34N 40°46' W 074°01'0 0.0
2015-Sep-01 14:34N 40°46' W 074°01'0 0.0
2015-Sep-01 13:34N 40°46' W 074°01'8 8.4
2015-Sep-01 12:34N 40°38' W 074°03'0 0.4
2015-Sep-01 11:34N 40°38' W 074°03'1 0.1
2015-Aug-31 22:33N 40°37' W 074°03'5 4.7
2015-Aug-31 21:32N 40°32' W 074°04'  

Dump ship's entire track history